{"data":{"norad_id":58059,"epoch":"2026-09-20T08:11:09.200544Z","epoch_age_seconds":151389,"freshness":"FRESH","line1":"1 58059U 23158J   26263.34107871 -.00000175  00000+0  31593-5 0  9995","line2":"2 58059  43.0052   7.3963 0001495 258.5553 101.5131 15.27572366163346","mean_motion":15.27572366,"eccentricity":0.0001495,"inclination_deg":43.0052,"raan_deg":7.3963,"arg_perigee_deg":258.5553,"mean_anomaly_deg":101.5131,"bstar":3.1593e-6,"rev_number":16334,"period_min":94.267219809081,"perigee_km":482.04620433838,"apogee_km":484.09770581595,"semimajor_km":6861.2089550772,"source":"CELESTRAK","updated_at":"2026-09-21T09:00:33.778537Z"}}